| time (UTC) | temp C | wind direction | speed KPH | gust KPH | rain 1hr cm | rain 24hr cm | rain mn cm | humidity % | barometer mb |
| 20260831164504 | 28 | 0.0 | 19.3 | 0.00 | 0.00 | 0.00 | 68 | 1017.2 | |
| 20260831163002 | 28 | 0.0 | 19.3 | 0.00 | 0.00 | 0.00 | 70 | 1017.3 | |
| 20260831161612 | 27 | 0.0 | 16.1 | 0.00 | 0.00 | 0.00 | 75 | 1017.2 | |
| 20260831160057 | 27 | 0.0 | 17.7 | 0.00 | 0.00 | 0.00 | 75 | 1017.3 | |
| 20260831154601 | 27 | 0.0 | 16.1 | 0.00 | 0.00 | 0.00 | 78 | 1017.2 | |
| 20260831153052 | 26 | 0.0 | 17.7 | 0.00 | 0.00 | 0.00 | 77 | 1017.1 | |
| 20260831151549 | 26 | 0.0 | 14.5 | 0.00 | 0.00 | 0.00 | 81 | 1017.2 | |
| 20260831150044 | 25 | 0.0 | 9.7 | 0.00 | 0.00 | 0.00 | 84 | 1017.1 | |
| 20260831144543 | 25 | 0.0 | 9.7 | 0.00 | 0.00 | 0.00 | 84 | 1017.1 | |
| 20260831143042 | 25 | 360 | 0.0 | 12.9 | 0.00 | 0.00 | 0.00 | 84 | 1017.1 |
| 20260831141539 | 24 | 0.0 | 12.9 | 0.00 | 0.00 | 0.00 | 85 | 1017.0 | |
| 20260831140035 | 23 | 0.0 | 9.7 | 0.00 | 0.00 | 0.00 | 85 | 1016.9 | |
| 20260831134533 | 23 | 0.0 | 12.9 | 0.00 | 0.00 | 0.00 | 85 | 1017.0 | |
| 20260831133030 | 23 | 0.0 | 14.5 | 0.00 | 0.00 | 0.00 | 86 | 1016.8 | |
| 20260831131525 | 22 | 0.0 | 14.5 | 0.00 | 0.00 | 0.00 | 87 | 1016.7 | |
| 20260831130024 | 22 | 0.0 | 12.9 | 0.00 | 0.00 | 0.00 | 88 | 1016.7 | |
| 20260831124522 | 22 | 0.0 | 9.7 | 0.00 | 0.00 | 0.00 | 89 | 1016.5 | |
| 20260831123020 | 21 | 0.0 | 9.7 | 0.00 | 0.00 | 0.00 | 88 | 1016.4 | |
| 20260831121522 | 21 | 0.0 | 12.9 | 0.00 | 0.00 | 0.00 | 88 | 1016.2 | |
| 20260831120028 | 21 | 360 | 0.0 | 12.9 | 0.00 | 0.00 | 0.00 | 88 | 1016.1 |
| 20260831114517 | 21 | 0.0 | 14.5 | 0.00 | 0.00 | 0.00 | 88 | 1016.0 | |
| 20260831113013 | 21 | 0.0 | 8.0 | 0.00 | 0.00 | 0.00 | 88 | 1016.0 | |
| 20260831111520 | 21 | 0.0 | 8.0 | 0.00 | 0.00 | 0.00 | 88 | 1016.1 | |
| 20260831110009 | 21 | 0.0 | 8.0 | 0.00 | 0.00 | 0.00 | 88 | 1016.1 | |
| 20260831104508 | 21 | 0.0 | 8.0 | 0.00 | 0.00 | 0.00 | 89 | 1016.0 | |
| 20260831103012 | 21 | 0.0 | 8.0 | 0.00 | 0.00 | 0.00 | 89 | 1016.0 | |
| 20260831101508 | 21 | 0.0 | 9.7 | 0.00 | 0.00 | 0.00 | 89 | 1016.0 | |
| 20260831100008 | 21 | 0.0 | 8.0 | 0.00 | 0.00 | 0.00 | 88 | 1015.8 | |
| 20260831094503 | 21 | 0.0 | 8.0 | 0.00 | 0.00 | 0.00 | 88 | 1015.7 | |
| 20260831093003 | 21 | 0.0 | 6.4 | 0.00 | 0.00 | 0.00 | 88 | 1015.7 | |
| 20260831091613 | 22 | 0.0 | 8.0 | 0.00 | 0.00 | 0.00 | 88 | 1015.8 | |
| 20260831090108 | 21 | 0.0 | 9.7 | 0.00 | 0.00 | 0.00 | 88 | 1015.7 | |
| 20260831084559 | 21 | 0.0 | 8.0 | 0.00 | 0.00 | 0.00 | 88 | 1015.6 | |
| 20260831083057 | 22 | 0.0 | 12.9 | 0.00 | 0.00 | 0.00 | 87 | 1015.7 | |
| 20260831081555 | 22 | 0.0 | 9.7 | 0.00 | 0.00 | 0.00 | 86 | 1015.7 | |
| 20260831080104 | 22 | 0.0 | 6.4 | 0.00 | 0.00 | 0.00 | 86 | 1015.8 | |
| 20260831074555 | 22 | 0.0 | 3.2 | 0.00 | 0.00 | 0.00 | 86 | 1015.8 | |
| 20260831073055 | 22 | 0.0 | 4.8 | 0.00 | 0.00 | 0.00 | 86 | 1015.8 | |
| 20260831071554 | 22 | 0.0 | 9.7 | 0.00 | 0.00 | 0.00 | 87 | 1015.6 | |
| 20260831070051 | 22 | 0.0 | 12.9 | 0.00 | 0.00 | 0.00 | 85 | 1015.5 | |
| 20260831064550 | 22 | 0.0 | 9.7 | 0.00 | 0.00 | 0.00 | 85 | 1015.6 | |
| 20260831063049 | 22 | 0.0 | 12.9 | 0.00 | 0.00 | 0.00 | 84 | 1016.0 | |
| 20260831061547 | 22 | 0.0 | 9.7 | 0.00 | 0.00 | 0.00 | 84 | 1016.0 | |
| 20260831060047 | 22 | 0.0 | 6.4 | 0.00 | 0.00 | 0.00 | 86 | 1016.2 | |
| 20260831054545 | 22 | 0.0 | 3.2 | 0.00 | 0.00 | 0.00 | 85 | 1016.4 | |
| 20260831053044 | 23 | 0.0 | 3.2 | 0.00 | 0.00 | 0.00 | 84 | 1016.4 | |
| 20260831051541 | 23 | 0.0 | 6.4 | 0.00 | 0.00 | 0.00 | 84 | 1016.3 | |
| 20260831050041 | 23 | 0.0 | 6.4 | 0.00 | 0.00 | 0.00 | 85 | 1016.2 | |
| 20260831044540 | 23 | 0.0 | 4.8 | 0.00 | 0.00 | 0.00 | 86 | 1016.1 | |
| 20260831043039 | 23 | 0.0 | 6.4 | 0.00 | 0.00 | 0.00 | 87 | 1016.1 | |
| 20260831041548 | 23 | 0.0 | 6.4 | 0.00 | 0.00 | 0.00 | 85 | 1016.0 | |
| 20260831040034 | 23 | 0.0 | 6.4 | 0.00 | 0.00 | 0.00 | 86 | 1016.0 | |
| 20260831034533 | 23 | 0.0 | 9.7 | 0.00 | 0.00 | 0.00 | 86 | 1016.0 | |
| 20260831033033 | 23 | 0.0 | 8.0 | 0.00 | 0.00 | 0.00 | 86 | 1015.9 | |
| 20260831031540 | 23 | 0.0 | 8.0 | 0.00 | 0.00 | 0.00 | 86 | 1015.9 | |
| 20260831030032 | 23 | 0.0 | 9.7 | 0.00 | 0.00 | 0.00 | 84 | 1015.9 | |
| 20260831024532 | 24 | 0.0 | 9.7 | 0.00 | 0.00 | 0.00 | 85 | 1016.0 | |
| 20260831023031 | 23 | 0.0 | 6.4 | 0.00 | 0.00 | 0.00 | 85 | 1016.1 | |
| 20260831021531 | 24 | 0.0 | 4.8 | 0.00 | 0.00 | 0.00 | 85 | 1016.4 | |
| 20260831020030 | 24 | 0.0 | 4.8 | 0.00 | 0.00 | 0.00 | 84 | 1016.3 | |
| 20260831014530 | 25 | 0.0 | 6.4 | 0.00 | 0.00 | 0.00 | 83 | 1016.3 | |
| 20260831013030 | 25 | 0.0 | 9.7 | 0.00 | 0.00 | 0.00 | 83 | 1016.0 | |
| 20260831011630 | 25 | 0.0 | 8.0 | 0.00 | 0.00 | 0.00 | 83 | 1015.8 | |
| 20260831010034 | 25 | 0.0 | 8.0 | 0.00 | 0.00 | 0.00 | 83 | 1016.0 | |
| 20260831004528 | 24 | 0.0 | 6.4 | 0.00 | 0.00 | 0.00 | 84 | 1015.8 | |
| 20260831003027 | 24 | 0.0 | 4.8 | 0.00 | 0.00 | 0.00 | 85 | 1015.8 | |
| 20260831001526 | 25 | 0.0 | 3.2 | 0.00 | 0.00 | 0.00 | 84 | 1015.8 | |
| 20260831000027 | 25 | 0.0 | 3.2 | 0.00 | 0.00 | 0.00 | 82 | 1015.9 | |
| 20260830234538 | 25 | 0.0 | 3.2 | 0.00 | 0.00 | 0.00 | 82 | 1016.0 | |
| 20260830233025 | 26 | 0.0 | 3.2 | 0.00 | 0.00 | 0.00 | 80 | 1016.1 | |
| 20260830231524 | 27 | 0.0 | 3.2 | 0.00 | 0.00 | 0.00 | 78 | 1016.3 | |
| 20260830230027 | 27 | 0.0 | 3.2 | 0.00 | 0.00 | 0.00 | 77 | 1016.5 | |
| 20260830224522 | 27 | 0.0 | 4.8 | 0.00 | 0.00 | 0.00 | 75 | 1016.5 | |
| 20260830223023 | 27 | 0.0 | 4.8 | 0.00 | 0.00 | 0.00 | 71 | 1016.5 | |
| 20260830221528 | 27 | 0.0 | 4.8 | 0.00 | 0.00 | 0.00 | 72 | 1016.5 | |
| 20260830220020 | 27 | 0.0 | 8.0 | 0.00 | 0.00 | 0.00 | 71 | 1016.5 | |
| 20260830214519 | 27 | 0.0 | 12.9 | 0.00 | 0.00 | 0.00 | 70 | 1016.3 | |
| 20260830213023 | 27 | 0.0 | 12.9 | 0.00 | 0.00 | 0.00 | 69 | 1016.1 | |
| 20260830211520 | 28 | 0.0 | 17.7 | 0.00 | 0.00 | 0.00 | 67 | 1016.0 | |
| 20260830210019 | 28 | 0.0 | 19.3 | 0.00 | 0.00 | 0.00 | 65 | 1016.0 | |
| 20260830204531 | 28 | 0.0 | 24.1 | 0.00 | 0.00 | 0.00 | 62 | 1015.8 | |
| 20260830203015 | 28 | 0.0 | 32.2 | 0.00 | 0.00 | 0.00 | 59 | 1016.0 | |
| 20260830201511 | 28 | 0.0 | 25.7 | 0.00 | 0.00 | 0.00 | 61 | 1016.2 | |
| 20260830200010 | 27 | 0.0 | 24.1 | 0.00 | 0.00 | 0.00 | 65 | 1016.6 | |
| 20260830194506 | 27 | 0.0 | 22.5 | 0.00 | 0.00 | 0.00 | 66 | 1016.8 | |
| 20260830193004 | 26 | 0.0 | 24.1 | 0.00 | 0.00 | 0.00 | 68 | 1016.8 | |
| 20260830191607 | 26 | 0.0 | 20.9 | 0.00 | 0.00 | 0.00 | 74 | 1016.7 | |
| 20260830190057 | 25 | 0.0 | 29.0 | 0.00 | 0.00 | 0.00 | 78 | 1016.6 | |
| 20260830184554 | 25 | 360 | 0.0 | 27.4 | 0.00 | 0.00 | 0.00 | 79 | 1016.6 |
| 20260830183051 | 24 | 0.0 | 27.4 | 0.00 | 0.00 | 0.00 | 83 | 1016.5 | |
| 20260830181552 | 23 | 0.0 | 25.7 | 0.00 | 0.00 | 0.00 | 82 | 1016.7 | |
| 20260830180054 | 23 | 0.0 | 24.1 | 0.00 | 0.00 | 0.00 | 84 | 1017.0 | |
| 20260830174553 | 24 | 0.0 | 20.9 | 0.00 | 0.00 | 0.00 | 81 | 1017.1 | |
| 20260830173102 | 24 | 360 | 0.0 | 16.1 | 0.00 | 0.00 | 0.00 | 79 | 1017.8 |
| 20260830171548 | 24 | 0.0 | 8.0 | 0.00 | 0.00 | 0.00 | 80 | 1018.4 | |
| 20260830170044 | 24 | 0.0 | 8.0 | 0.00 | 0.00 | 0.00 | 78 | 1019.0 |